Вернуться в каталог

COSMOS 2251 DEB

АктивенLEO
NORAD 34793·DEBRIS·🇷🇺 Russia

Запущен Jun 16, 1993 с Plesetsk Cosmodrome

Loading…

Ближайшие Пролёты (ближайшие 24 часа)

TLE

СвежийSource: Space-Track

Эпоха: Sep 14, 2026, 18:17 UTC

1 34793U 93036AAW 26257.76222432  .00000367  00000-0  12568-3 0  9998
2 34793  74.0006 100.2432 0051461 190.8297 295.4286 14.38995262913008

Отслеживайте COSMOS 2251 DEB в реальном времени с AllMySat

Download on the App Store